Home   Weather   Hohhot   Past weeks

Flag for China Past Weather in Hohhot, Inner Mongolia, China — Yesterday and Last 2 Weeks

36 °F

Passing clouds.

Feels Like: 33 °F
Forecast: 18 / 36 °F
Wind: 3 mph from Southwest

Location: Hohhot Airport

Current Time: Oct 27, 2016 at 7:13:20 PM

Latest Report: Oct 27, 2016 at 6:00 PM

Visibility: N/A

Pressure: 30.33 "Hg (26.61 "Hg at 1053m altitude)

Humidity: 93%

Dew Point: 34 °F

Location of HohhotLocation

Past Weather in Hohhot — Graph


Hohhot Temperature Yesterday

Maximum temperature yesterday: 57 °F (at 3:00 PM)
Minimum temperature yesterday: 32 °F (at 6:00 AM)
Average temperature yesterday: 44 °F

High & Low Weather Summary for the Past Weeks

High70 °F (Oct 18, 3:00 PM)100% (Oct 16, 1:00 AM)30.33 "Hg (Oct 16, 1:00 AM)
Low32 °F (Oct 17, 5:00 AM)15% (Oct 16, 4:00 PM)29.92 "Hg (Oct 24, 4:00 PM)
Average48 °F68%30.10 "Hg
* Reported Oct 12 6:00 PM — Oct 27 6:00 PM, Hohhot, Weather by CustomWeather, © 2016

Note: Actual official high and low records may vary slightly from our data, if they occured in-between our weather recording intervals... More about our weather records


Hohhot Weather History for the Previous 24 Hours

Scroll right to see more
Time TempWeatherWind HumidityBarometerVisibility
6:00 PM
Thu, Oct 27
36 °FPassing clouds.3 mph93%30.33 "HgN/A
5:00 PM36 °FScattered clouds.3 mph93%30.30 "HgN/A
4:00 PM37 °FLight rain. Partly sunny.1 mph87%30.30 "HgN/A
3:00 PM37 °FLight rain. Partly sunny.1 mph87%30.27 "HgN/A
2:00 PM37 °FLight rain. Partly sunny.8 mph87%30.27 "HgN/A
1:00 PM39 °FLight rain. Partly sunny.3 mph87%30.27 "HgN/A
12:00 PM37 °FLight rain. Partly sunny.13 mph87%30.27 "HgN/A
11:00 AM37 °FLight rain. Partly sunny.6 mph87%30.27 "HgN/A
10:00 AM37 °FLight rain. Partly sunny.8 mph87%30.27 "HgN/A
9:00 AM37 °FLight rain. Partly sunny.10 mph87%30.27 "HgN/A
8:00 AM39 °FLight rain. Partly sunny.8 mph87%30.24 "HgN/A
7:00 AM41 °FLight rain. Partly sunny.10 mph81%30.21 "HgN/A
6:00 AM43 °FLight rain. Passing clouds.6 mph81%30.21 "HgN/A
5:00 AM43 °FLight rain. Passing clouds.8 mph81%30.18 "HgN/A
4:00 AM43 °FLight rain. Passing clouds.15 mph81%30.18 "HgN/A
3:00 AM43 °FPassing clouds.6 mph66%30.18 "HgN/A
2:00 AM43 °FPassing clouds.6 mph61%30.18 "HgN/A
1:00 AM43 °FPassing clouds.3 mph57%30.18 "HgN/A
12:00 AM43 °FPassing clouds.3 mph53%30.21 "HgN/A
11:00 PM
Wed, Oct 26
41 °FPassing clouds.3 mph53%30.18 "HgN/A
10:00 PM41 °FPassing clouds.6 mph49%30.18 "HgN/A
9:00 PM43 °FPassing clouds.8 mph46%30.18 "HgN/A
8:00 PM43 °FPassing clouds.3 mph49%30.18 "HgN/A
7:00 PM43 °FClear.6 mph57%30.18 "Hg10 mi
Weather by CustomWeather, © 2016

See weather overviewHow to use our weather pages